Location: Unspecified
(44.0704°N, 88.6889°W)
Time: 05:53:14
(UTC+02:00)

CZ-3 Stage 3 - Pass Details

Date: 02 April 2019
Orbit: 493 x 34699 km, 30.5° (Epoch: 22 April)

Event Time Altitude Azimuth Distance (km) Brightness Sun altitude
Exits shadow 11:42:20 22° 222° (SW) 4,522 5.8 -20.0°
Maximum altitude 11:56:38 59° 152° (SSE) 6,691 7.2 -17.7°
Drops below altitude 10° 20:36:19 10° 164° (SSE) 18,434 10.2 50.1°
Sets 20:52:46 0° 159° (SSE) 15,807 9.6 49.2°
